Temperature
24 24 24 24 25 25 25 25 25 26 26 26 25 25 25 25 25 24 24 24 24 23 22 22 21 21 20 20 19 19 18 18 18 17 17 17 16 16 16 16 16 16 16 16
24 24 25 26 25 25 25 25 25 25 26 26 25 25 25 25 25 24 24 24 24 23 23 22 21 21 20 20 19 19 19 18 18 17 17 17 16 16 16 16 16 16 16 16
24 25 26 25 25 25 25 25 24 24 25 26 25 24 24 25 25 25 24 24 24 23 23 22 21 20 20 20 19 19 18 18 18 17 17 17 16 16 16 16 16 16 16 16
25 25 25 25 25 25 24 25 25 24 24 23 25 22 23 24 24 24 24 24 24 23 23 22 21 20 20 19 19 19 18 18 18 17 17 17 16 16 16 16 16 16 16 16
24 25 24 24 25 25 24 25 25 24 24 23 24 23 23 24 23 24 24 24 24 23 23 22 21 20 20 19 19 19 18 18 17 17 17 16 16 16 16 16 16 16 15 15
24 25 25 25 25 25 25 24 24 24 23 22 24 24 23 24 24 24 25 24 24 23 23 22 21 21 20 19 19 18 18 18 17 17 17 16 16 16 16 16 16 16 15 15
23 24 25 25 24 24 24 23 22 22 21 22 25 24 23 25 25 25 25 24 24 23 22 22 21 20 20 19 19 18 18 17 17 17 17 16 16 16 16 16 16 16 16 15
22 23 24 24 24 23 24 23 22 21 22 23 25 24 24 26 25 25 25 24 23 23 22 21 21 20 19 19 18 18 18 17 17 17 17 16 16 16 16 16 16 16 16 16
22 22 24 24 24 24 23 23 24 23 23 22 24 24 24 25 25 25 24 24 23 22 22 21 20 20 19 19 18 18 17 17 17 17 16 16 16 16 16 16 16 16 16 16
23 22 23 23 24 24 23 23 23 22 21 21 23 23 23 24 24 24 23 23 22 22 21 21 20 19 19 18 18 18 17 17 17 17 16 16 16 16 16 16 16 16 16 16
22 22 22 22 22 22 23 23 22 22 22 21 21 22 24 24 24 24 23 23 22 22 21 20 20 19 19 18 18 17 17 17 17 17 17 16 16 16 16 16 16 16 16 16
21 21 21 22 23 23 23 22 22 21 21 22 21 22 25 24 24 24 23 23 22 21 21 20 19 19 18 18 17 17 17 17 17 17 16 16 16 16 16 16 16 16 16 16
20 20 20 20 21 22 22 21 21 21 21 21 21 21 24 23 23 23 23 22 22 21 20 20 19 19 18 18 17 17 17 17 17 17 16 16 16 16 16 16 16 16 16 16
19 19 19 19 20 20 20 20 21 20 20 20 21 22 23 23 22 22 22 22 22 21 20 19 19 18 18 18 17 17 17 17 16 16 16 16 16 16 16 16 16 16 16 16
19 19 20 20 21 21 20 20 20 20 20 20 21 22 22 23 22 22 22 22 21 21 20 19 19 18 18 18 17 17 17 17 16 16 16 16 16 16 16 16 16 16 16 16
19 18 19 19 20 20 20 21 21 20 21 21 21 21 23 23 23 22 22 22 21 20 20 19 19 18 18 17 17 17 17 17 16 16 16 16 16 16 16 16 16 15 15 15
18 18 17 18 19 19 19 21 21 21 21 21 21 21 22 22 22 22 22 21 21 20 19 19 18 18 18 17 17 17 17 17 16 16 16 16 16 16 16 16 15 15 15 15
18 18 17 17 18 17 20 22 22 21 21 22 22 22 22 22 21 21 21 21 20 20 19 19 18 18 18 18 17 17 17 16 16 16 16 16 16 16 16 15 15 15 15 15
18 17 17 17 17 18 20 21 21 21 20 22 21 22 22 21 21 20 20 20 20 19 19 18 18 18 18 17 17 17 17 17 16 16 16 16 16 15 15 15 15 15 15 15
18 18 17 16 16 17 19 20 21 21 19 21 21 21 21 21 19 20 20 20 19 19 18 18 18 18 18 17 17 17 17 17 16 16 16 16 15 15 15 15 15 15 15 15
17 16 16 16 16 18 19 20 20 18 18 20 20 20 20 20 20 20 19 19 19 19 18 18 18 17 17 17 17 17 17 16 16 16 16 16 15 15 15 15 15 15 15 14
16 16 16 16 16 17 18 19 18 18 19 19 19 19 19 19 19 19 19 18 18 18 18 18 17 17 17 17 17 16 16 16 16 16 16 15 15 15 15 15 15 15 15 14
17 17 17 17 16 18 18 18 18 18 18 19 19 19 18 18 18 18 18 18 18 18 18 17 17 17 16 16 16 16 16 16 16 16 16 15 15 15 15 15 15 15 14 14
17 18 17 17 17 17 17 17 17 17 17 17 17 17 18 18 18 17 17 17 17 17 17 17 17 16 16 16 16 16 16 16 16 15 15 15 15 15 15 15 15 14 14 14
16 16 16 16 16 16 16 16 16 16 16 16 16 16 17 17 17 17 17 17 17 17 17 16 16 16 16 16 16 16 16 16 15 15 15 15 15 14 14 14 14 14 14 14
16 15 15 15 16 16 15 15 15 15 15 15 16 16 16 16 16 16 16 16 16 16 16 16 16 16 16 16 15 15 15 15 15 15 15 15 15 14 14 14 14 14 14 14
Wind_Speed
8 8 7 7 8 8 7 7 6 4 3 4 5 5 4 4 4 4 5 5 5 6 8 7 7 7 7 6 5 6 6 6 6 4 3 3 3 2 3 2 4 4 3 5
8 9 8 6 5 8 9 9 7 4 3 5 5 5 4 5 6 4 4 4 4 5 7 8 7 7 7 7 7 6 6 6 6 4 3 4 3 3 3 2 3 4 3 4
9 3 4 6 7 9 10 8 7 6 6 8 6 6 6 6 6 5 5 4 5 5 6 8 8 7 7 7 6 6 6 7 7 6 3 3 3 2 2 2 2 2 3 3
6 5 6 8 8 9 8 5 7 8 8 6 6 4 5 6 6 6 5 4 5 5 6 7 8 8 8 7 6 6 7 7 6 7 5 4 4 2 2 2 3 3 3 2
6 5 7 9 7 8 6 5 8 10 9 9 9 7 4 6 6 6 6 5 5 5 6 6 8 9 8 7 6 6 6 7 6 7 6 5 3 3 2 2 3 2 2 2
8 6 6 7 6 7 6 7 10 10 8 9 11 7 3 4 5 5 6 6 5 5 6 6 7 8 7 7 6 5 6 6 6 7 7 6 5 4 4 3 3 3 2 2
8 9 7 6 7 7 8 7 4 5 7 7 6 5 3 3 3 3 4 4 4 4 6 6 7 8 8 8 7 6 7 7 6 6 6 6 6 5 5 4 4 3 3 2
7 7 7 5 7 6 8 9 6 4 5 4 4 4 4 6 5 4 4 4 4 5 4 6 7 7 8 8 8 8 8 8 7 6 5 5 5 4 4 4 4 3 3 3
5 3 3 3 5 7 8 8 8 9 10 8 5 4 5 5 5 4 4 4 4 4 4 5 6 7 8 8 7 8 8 8 8 8 6 5 5 6 5 4 4 3 3 4
7 5 4 3 5 7 9 8 5 6 5 7 6 6 4 6 6 5 4 4 3 3 4 5 6 6 7 8 7 8 8 7 8 7 6 5 5 5 5 4 4 4 3 3
9 6 5 6 7 6 6 8 6 6 6 5 4 1 3 4 4 4 4 4 3 3 4 4 5 6 7 7 7 8 7 7 6 7 6 6 5 5 5 4 4 4 4 5
6 6 7 8 6 7 7 7 7 6 6 6 5 1 3 5 4 3 3 3 4 4 4 5 5 6 7 7 7 7 7 7 6 6 6 7 6 6 6 5 5 4 4 4
5 5 6 5 5 5 6 5 6 7 7 7 6 3 2 2 3 2 2 2 4 4 5 5 5 5 6 6 6 6 6 6 5 5 6 6 6 6 6 6 5 5 4 4
5 8 9 8 6 5 8 8 8 8 7 9 8 5 3 2 2 1 2 2 3 5 5 5 5 5 5 5 6 6 7 6 6 5 5 5 5 5 5 5 5 5 5 5
5 9 11 10 10 10 11 12 12 12 12 10 9 9 7 3 2 2 2 3 3 4 5 5 4 4 5 5 5 6 6 6 6 6 5 4 4 4 4 4 4 4 4 4
6 8 10 12 12 13 14 15 15 15 14 14 13 11 7 4 2 2 2 3 4 4 4 4 4 4 5 5 5 6 7 7 6 6 5 4 4 4 5 4 4 4 4 4
6 8 8 10 10 12 14 13 14 13 12 12 13 9 5 5 3 2 2 3 3 4 4 3 3 4 4 5 6 5 7 8 7 6 6 5 4 4 4 5 5 4 4 4
10 10 6 8 8 11 6 5 8 10 10 10 9 7 6 5 2 0 1 2 3 4 4 4 3 3 3 4 5 4 6 8 7 7 6 6 5 5 5 5 5 5 4 4
10 9 6 6 9 10 7 5 5 7 9 8 8 7 6 5 3 2 3 2 3 4 4 3 3 3 3 4 4 4 5 7 8 7 6 7 6 6 6 6 5 4 5 4
9 9 8 7 8 7 3 2 4 6 8 4 4 4 5 5 4 3 2 2 3 3 3 3 2 2 2 3 4 5 5 6 7 7 7 7 7 7 6 6 5 5 5 4
8 8 10 11 10 7 2 4 3 5 3 3 3 4 3 3 2 1 1 2 2 2 3 3 3 2 2 2 4 4 5 6 6 6 7 7 7 7 7 6 5 5 5 5
8 6 8 8 10 6 1 2 3 4 5 4 4 4 4 2 2 1 1 1 1 2 3 4 3 3 2 2 3 4 4 4 6 7 7 6 6 6 6 6 6 6 6 5
7 7 4 5 5 4 4 5 6 8 9 6 4 5 4 3 3 2 2 2 2 3 3 4 4 3 2 3 4 4 4 4 6 7 7 6 6 5 6 6 6 6 6 5
7 6 7 8 7 7 6 6 7 8 8 7 6 6 5 4 4 3 3 3 2 3 3 3 4 4 3 3 4 3 4 6 6 7 7 6 6 5 6 5 5 5 5 5
7 5 8 10 8 7 6 5 6 8 8 8 6 6 6 5 4 4 2 3 3 2 3 3 4 4 4 4 4 3 4 5 6 6 6 6 5 5 5 5 4 5 4 5
8 9 9 9 8 7 8 7 7 7 8 8 7 6 6 5 5 4 3 3 3 3 3 3 4 4 5 4 4 4 4 5 6 6 6 5 5 5 4 4 3 3 3 6
Wind_Direction
215 228 232 230 235 262 268 270 265 257 227 239 241 228 211 209 213 207 191 186 181 174 163 159 153 144 141 143 144 140 145 141 131 127 124 118 121 113 103 99 92 76 80 106
223 226 236 247 257 263 261 261 268 266 255 254 246 243 212 208 213 216 207 192 182 171 158 152 154 155 155 159 164 155 148 138 129 131 145 142 131 124 114 102 100 91 66 75
232 229 220 233 240 248 251 258 273 279 280 269 250 244 217 201 203 201 212 204 189 182 170 161 164 160 160 162 167 162 155 148 143 138 124 113 105 93 104 121 111 85 75 44
244 235 233 239 242 258 259 267 268 268 266 263 244 255 213 192 198 196 202 210 195 181 172 168 164 160 162 165 168 164 163 151 143 139 127 125 128 131 145 148 145 137 120 103
247 235 242 247 246 259 274 289 275 268 267 268 253 248 219 176 200 194 188 196 189 173 173 169 161 161 161 161 166 164 152 142 137 132 132 140 135 142 137 122 117 117 121 112
261 261 253 259 258 260 268 269 262 252 253 254 241 238 222 201 191 187 179 180 181 169 163 161 152 150 151 151 154 151 140 137 140 145 150 152 149 150 143 135 136 134 129 145
236 234 232 247 254 236 244 251 252 227 225 234 215 220 200 160 139 137 143 154 154 148 153 152 144 149 153 155 159 157 149 146 151 159 165 165 167 161 150 147 149 145 146 151
237 229 209 220 248 252 242 243 249 261 254 256 226 212 142 117 111 110 112 118 126 136 144 147 149 153 155 156 161 163 163 159 163 169 175 170 161 150 147 155 154 150 152 148
271 235 194 226 252 260 257 249 260 276 282 269 233 186 166 142 136 128 111 104 108 120 127 137 146 155 156 156 159 161 165 166 168 171 173 171 163 155 157 155 149 151 155 151
292 275 243 239 239 240 255 270 270 259 274 266 244 223 200 179 165 137 124 115 113 121 123 139 142 144 148 154 161 161 170 174 167 166 172 162 155 146 141 143 153 157 154 148
289 273 242 234 239 247 245 241 249 268 261 269 265 239 96 110 109 126 134 136 132 136 133 128 138 140 141 149 157 165 169 165 162 165 162 154 149 153 151 153 173 174 174 167
292 285 259 242 246 258 257 259 257 260 265 266 272 249 80 91 82 93 114 121 121 129 130 128 129 139 143 153 162 163 164 163 163 162 161 163 160 164 169 170 180 184 178 169
305 278 268 237 215 223 243 256 274 277 271 258 252 209 144 100 74 65 96 115 127 132 127 125 131 137 147 154 161 157 158 155 159 164 167 168 171 176 176 174 177 185 177 167
288 258 258 264 278 263 256 260 265 264 263 264 257 249 239 216 119 117 112 110 126 133 131 134 138 142 143 154 164 159 155 153 160 166 175 176 178 178 173 174 172 177 165 157
268 264 268 275 284 280 262 257 254 254 262 266 270 274 268 247 194 167 152 137 128 130 135 139 144 150 153 158 167 158 153 157 163 168 181 177 169 162 152 154 159 155 147 147
253 274 279 274 271 272 270 257 248 248 253 258 264 266 265 262 251 189 164 156 153 148 139 143 156 161 167 165 173 162 156 162 164 167 170 160 158 151 150 159 148 140 138 134
246 261 274 270 266 273 260 252 247 243 244 250 255 262 276 276 253 226 174 162 166 148 142 145 166 173 177 180 179 173 168 168 169 165 164 163 159 151 154 148 131 130 133 133
248 255 257 267 267 252 257 264 254 252 251 252 259 258 261 267 250 180 226 191 161 153 154 158 163 171 180 179 171 168 170 167 166 164 164 159 158 150 147 142 147 148 140 140
236 242 249 252 259 265 259 260 258 257 257 256 259 255 256 259 236 224 235 182 157 154 157 163 166 168 174 173 170 178 180 168 165 166 167 160 157 153 155 156 160 153 142 141
228 232 238 249 256 256 268 328 307 276 256 264 265 263 255 242 232 225 201 126 127 136 142 153 156 149 161 170 174 183 184 176 171 166 166 165 164 159 161 162 158 149 141 145
218 229 234 246 251 256 302 319 308 253 283 322 296 278 270 259 247 265 31 88 118 139 147 145 145 150 168 180 177 186 189 185 169 158 157 162 163 160 159 156 150 149 150 155
231 232 233 238 244 248 359 290 266 297 315 309 310 303 291 301 292 266 292 173 176 173 153 153 158 161 172 182 182 196 191 172 154 150 152 156 158 161 159 154 153 151 151 156
226 229 245 244 256 293 294 297 312 315 306 309 311 308 303 282 268 251 248 221 211 188 172 169 170 168 180 176 184 201 181 160 155 151 154 157 155 156 156 157 159 159 160 165
259 256 251 254 254 274 287 305 313 315 318 324 326 319 305 284 274 257 237 226 215 189 188 180 178 176 186 187 184 192 173 160 162 160 160 161 159 158 158 160 163 165 169 174
263 263 258 260 267 280 280 296 309 317 319 323 321 316 310 302 292 276 250 230 219 205 189 186 192 188 191 187 177 180 170 161 167 167 164 164 160 160 163 164 167 176 179 180
251 248 248 258 267 274 282 291 298 301 302 304 304 305 301 293 291 285 263 236 225 213 203 200 203 200 190 182 182 180 179 171 167 167 166 161 159 161 164 155 134 98 149 160
Height
1497 1499 1499 1496 1495 1495 1495 1497 1498 1496 1492 1496 1499 1500 1499 1500 1501 1502 1504 1506 1507 1509 1512 1515 1517 1519 1521 1523 1525 1526 1528 1529 1531 1532 1533 1535 1536 1538 1538 1539 1540 1541 1542 1543
1496 1497 1493 1492 1493 1495 1495 1498 1498 1494 1491 1494 1497 1497 1496 1497 1499 1500 1502 1504 1505 1508 1510 1512 1515 1517 1519 1521 1524 1526 1527 1528 1530 1531 1533 1534 1536 1537 1538 1539 1540 1541 1543 1543
1494 1492 1491 1492 1494 1496 1496 1498 1499 1499 1495 1492 1496 1500 1496 1495 1496 1498 1500 1501 1503 1506 1508 1510 1513 1515 1517 1520 1522 1524 1526 1527 1529 1530 1532 1534 1535 1537 1538 1539 1540 1541 1542 1544
1490 1489 1491 1493 1494 1495 1497 1493 1495 1497 1501 1502 1497 1510 1498 1493 1493 1494 1497 1499 1501 1503 1505 1508 1510 1512 1515 1518 1520 1522 1524 1526 1528 1529 1531 1533 1534 1536 1537 1539 1540 1541 1542 1543
1491 1489 1491 1493 1492 1493 1494 1492 1494 1495 1499 1501 1496 1503 1499 1490 1494 1492 1493 1496 1498 1500 1503 1505 1508 1510 1513 1516 1518 1520 1522 1524 1526 1528 1530 1532 1534 1535 1537 1538 1539 1541 1542 1543
1489 1489 1489 1490 1490 1491 1492 1494 1494 1494 1499 1509 1496 1500 1502 1490 1489 1488 1490 1493 1496 1498 1500 1503 1506 1508 1511 1513 1516 1518 1520 1522 1524 1527 1529 1531 1532 1534 1536 1537 1538 1540 1541 1542
1492 1489 1488 1489 1492 1491 1493 1501 1511 1512 1512 1505 1486 1493 1495 1483 1482 1485 1487 1490 1493 1496 1499 1501 1504 1506 1509 1511 1514 1516 1518 1521 1523 1525 1528 1530 1532 1533 1535 1536 1538 1539 1541 1542
1496 1495 1487 1488 1491 1493 1492 1496 1511 1517 1510 1498 1486 1491 1487 1479 1482 1484 1487 1489 1492 1495 1497 1499 1502 1504 1507 1509 1512 1514 1517 1519 1521 1524 1526 1529 1531 1532 1534 1536 1537 1539 1540 1541
1494 1494 1486 1487 1488 1490 1493 1493 1491 1499 1498 1502 1492 1486 1483 1479 1482 1485 1487 1489 1492 1494 1496 1498 1500 1502 1505 1507 1510 1512 1515 1518 1520 1523 1525 1528 1530 1531 1533 1535 1537 1538 1540 1541
1491 1496 1489 1488 1489 1489 1490 1491 1495 1501 1509 1510 1496 1491 1490 1483 1482 1484 1487 1489 1492 1494 1495 1497 1499 1501 1503 1505 1508 1511 1513 1516 1519 1521 1524 1526 1529 1530 1532 1534 1536 1537 1539 1540
1492 1496 1494 1491 1491 1492 1492 1493 1494 1496 1497 1507 1508 1499 1478 1479 1480 1483 1485 1488 1491 1493 1495 1496 1498 1500 1502 1504 1507 1510 1513 1515 1518 1520 1523 1525 1527 1529 1531 1533 1535 1537 1538 1540
1495 1496 1496 1491 1486 1486 1488 1490 1494 1504 1502 1496 1502 1500 1477 1478 1480 1482 1485 1487 1490 1492 1494 1496 1498 1499 1501 1504 1506 1509 1511 1514 1516 1519 1521 1524 1526 1528 1530 1531 1533 1536 1537 1539
1499 1500 1503 1498 1494 1491 1490 1492 1493 1495 1497 1497 1502 1499 1479 1480 1482 1484 1485 1487 1489 1491 1493 1495 1497 1499 1501 1503 1505 1508 1510 1512 1515 1517 1520 1522 1525 1527 1528 1530 1532 1534 1536 1537
1501 1499 1502 1505 1498 1494 1495 1494 1494 1497 1501 1498 1493 1490 1483 1481 1483 1485 1485 1487 1489 1491 1493 1495 1497 1498 1500 1502 1505 1507 1509 1511 1513 1515 1518 1521 1523 1525 1527 1529 1531 1533 1534 1536
1500 1499 1494 1492 1489 1489 1491 1492 1492 1494 1494 1497 1490 1487 1482 1480 1482 1484 1485 1487 1488 1490 1493 1494 1496 1498 1499 1501 1504 1505 1507 1509 1512 1514 1516 1519 1521 1523 1525 1527 1529 1531 1533 1535
1499 1499 1495 1494 1489 1488 1488 1485 1486 1487 1487 1487 1486 1484 1478 1478 1479 1482 1484 1486 1487 1489 1492 1493 1495 1497 1498 1500 1502 1504 1505 1508 1510 1512 1515 1517 1519 1521 1524 1526 1528 1530 1531 1533
1497 1499 1500 1497 1490 1489 1489 1479 1479 1479 1479 1481 1484 1481 1477 1478 1478 1480 1482 1484 1486 1488 1490 1492 1493 1495 1497 1498 1500 1502 1504 1506 1508 1511 1513 1515 1518 1520 1522 1524 1526 1528 1530 1532
1496 1497 1499 1497 1495 1499 1480 1471 1471 1473 1474 1474 1474 1475 1476 1477 1478 1480 1482 1483 1485 1486 1488 1490 1492 1493 1495 1497 1499 1500 1502 1504 1507 1509 1511 1514 1516 1518 1520 1522 1524 1527 1529 1530
1490 1494 1498 1497 1496 1487 1476 1470 1470 1473 1473 1471 1472 1473 1475 1476 1477 1479 1480 1481 1483 1484 1486 1488 1490 1491 1493 1495 1497 1499 1501 1503 1505 1507 1509 1511 1513 1516 1518 1520 1522 1525 1527 1529
1486 1488 1495 1495 1497 1492 1477 1470 1469 1471 1475 1470 1470 1472 1473 1474 1478 1479 1478 1479 1481 1483 1484 1486 1488 1489 1491 1493 1495 1497 1498 1500 1502 1504 1507 1509 1511 1513 1516 1518 1520 1523 1525 1527
1488 1490 1492 1492 1491 1480 1473 1471 1471 1480 1477 1469 1469 1470 1471 1472 1474 1476 1477 1478 1479 1481 1482 1484 1486 1487 1489 1491 1493 1495 1496 1498 1500 1502 1505 1507 1509 1511 1514 1516 1519 1521 1523 1525
1484 1487 1487 1487 1489 1484 1473 1471 1474 1475 1471 1469 1469 1470 1471 1471 1472 1474 1475 1476 1477 1479 1481 1482 1484 1485 1487 1488 1490 1492 1494 1496 1498 1500 1502 1505 1507 1510 1512 1514 1517 1519 1521 1523
1478 1479 1479 1480 1480 1474 1473 1472 1472 1472 1471 1468 1469 1469 1470 1470 1471 1472 1474 1474 1476 1477 1479 1480 1482 1483 1485 1486 1488 1490 1491 1493 1495 1497 1500 1503 1505 1507 1509 1512 1514 1516 1518 1520
1473 1473 1474 1474 1472 1471 1471 1471 1471 1470 1470 1469 1468 1469 1468 1469 1469 1470 1471 1472 1474 1475 1476 1478 1480 1481 1482 1484 1486 1487 1489 1490 1492 1495 1497 1500 1503 1505 1507 1509 1511 1514 1515 1517
1474 1473 1472 1471 1470 1470 1468 1469 1469 1469 1468 1467 1467 1467 1467 1467 1467 1468 1468 1470 1471 1472 1474 1475 1477 1478 1480 1481 1483 1484 1486 1488 1490 1492 1495 1498 1500 1502 1504 1507 1509 1511 1512 1514
1470 1471 1472 1470 1468 1468 1467 1467 1467 1467 1466 1465 1465 1465 1465 1465 1465 1465 1466 1467 1468 1470 1471 1473 1474 1476 1477 1479 1480 1482 1484 1486 1487 1490 1492 1494 1497 1499 1502 1504 1506 1508 1510 1512